Terug naar catalogus

STARLINK-5823

ActiefCommunicatieVLEO
NORAD 55786·PAYLOAD·🇺🇸 United States

Gelanceerd Mar 3, 2023 vanaf Vandenberg Space Force Base

Loading…

Volgende Passages (komende 24 uur)

TLE

VersSource: CelesTrak SupGP

Epoch: Sep 15, 2026, 01:34 UTC

1 55786C 23028AX  26258.06576389  .00655420  00000+0  38965-1 0  2584
2 55786  69.9996  86.7110 0003414 273.3030 300.6304 15.10845432    14

Volg STARLINK-5823 in realtime met AllMySat

Download on the App Store